Погода в Сомертоне

Великобритания     51°03′15″N   2°44′04″W
темп.,
°C
ветер,
м/с
пор.,
м/с
влажн.,
%
обл.,
%
осадки,
мм/ч
давл.,
гПа
погр.,
м
1 августа, вс
вс101:00+11зюз11957 0.1 101112
04:00+13юз119570 0.0 101115
07:00+13юз229256 0.0 101179
10:00+17з237777 0.1 1011622
13:00+19зюз447655 1.2 1011789
16:00+19сз568046 4.1 1012877
19:00+17ссз348411 5.0 1012555
22:00+13зсз22926 0.3 101419
2 августа, пн
пн201:00+11сз119210 0.3 101411
04:00+11сз119334 0.0 101515
07:00+12ссв019344 0.1 101542
10:00+16юв118065 0.6 1015180
13:00+17ююв2271100 1.9 1015605
16:00+17ю3479100 2.6 1014410
19:00+15юз2389100 5.6 101486
22:00+13юв119487 3.2 101522
3 августа, вт
вт301:00+12юз119312 3.8 101410
04:00+10з22935 0.0 101411
07:00+11з118999 0.0 101431
10:00+15зсз117596 0.0 1014455
13:00+18зюз3361100 0.0 1014942
16:00+17ююз3363100 0.0 1013688
19:00+16юз3480100 0.3 1013243
22:00+13з1193100 0.3 101410
4 августа, ср
ср401:00+12зюз0195100 0.9 101410
04:00+13зюз1195100 0.0 101410
07:00+13з119312 0.1 101439
10:00+17з227723 0.0 1015707
13:00+20з236063 0.4 10141477
16:00+18зюз3476100 1.0 1014635
19:00+17ю3685100 2.3 1014288
22:00+14ююз4992100 0.2 1013269
5 августа, чт
чт501:00+14ю51191100 0.2 1011477
04:00+14ю71392100 0.0 1009706
07:00+14ю81494100 0.1 1006809
10:00+18зюз7107419 0.4 10051195
13:00+18юз8116892 0.8 10041488
16:00+17зюз8137660 0.6 10041174
19:00+16зюз9148196 1.4 10041089
22:00+16зюз8147780 0.0 10051082